CST,Max TemperatureF,Mean TemperatureF,Min TemperatureF,Max Dew PointF,MeanDew PointF,Min DewpointF,Max Humidity, Mean Humidity, Min Humidity, Max Sea Level PressureIn, Mean Sea Level PressureIn, Min Sea Level PressureIn, Max VisibilityMiles, Mean VisibilityMiles, Min VisibilityMiles, Max Wind SpeedMPH, Mean Wind SpeedMPH, Max Gust SpeedMPH,PrecipitationIn, CloudCover, Events, WindDirDegrees
2012-12-1,35,30,24,31,28,22,100,90,75,29.93,29.82,29.69,10,7,2,20,10,,0.00,6,,14
2012-12-2,40,32,24,36,29,21,100,95,83,29.94,29.78,29.41,10,3,0,18,8,,0.00,6,Fog,167
2012-12-3,42,30,15,38,26,6,91,73,59,29.99,29.60,29.36,10,10,10,28,13,39,0.07,2,Rain,283
2012-12-4,19,14,10,9,7,4,84,71,62,30.39,30.26,30.00,10,10,10,17,11,26,0.00,1,,356
2012-12-5,34,23,12,25,17,9,84,68,57,30.35,29.91,29.65,10,10,10,24,14,32,0.00,3,Rain,178
2012-12-6,38,28,16,29,19,13,85,72,57,30.04,29.90,29.64,10,10,10,23,15,31,0.00,4,,310
2012-12-7,16,10,3,12,6,-1,85,77,68,30.14,30.12,30.04,10,10,10,10,6,,0.00,5,Snow,23
2012-12-8,18,12,5,14,8,0,86,83,73,30.19,30.04,29.98,10,6,2,21,8,26,0.00,8,Snow,42
2012-12-9,4,-4,-12,-1,-7,-19,80,75,66,30.40,30.32,30.19,10,7,2,22,17,29,0.00,6,Snow,6
2012-12-10,16,2,-12,9,2,-18,85,77,63,30.15,29.82,29.75,10,9,5,21,10,26,0.00,5,Snow,195
2012-12-11,8,3,-2,3,-2,-9,79,74,62,29.96,29.88,29.76,10,10,3,13,9,,0.00,7,Snow,12
2012-12-12,14,8,3,9,2,-2,79,78,72,30.04,29.89,29.76,10,10,9,14,11,,0.00,8,Snow,18
2012-12-13,19,11,3,17,5,-3,93,79,67,30.17,30.10,30.04,10,8,2,15,9,,0.00,8,Snow,265
2012-12-14,25,16,8,20,14,5,93,88,81,30.08,29.94,29.78,10,7,0,15,9,,0.00,5,Fog-Snow,172
2012-12-15,23,14,6,19,8,3,93,86,72,29.81,29.76,29.70,10,4,0,20,2,26,0.00,4,Fog-Snow,330
2012-12-16,23,20,17,21,17,14,93,85,80,29.89,29.86,29.81,10,10,10,13,9,,0.00,8,Snow,8
2012-12-17,19,17,15,16,14,12,93,89,85,29.86,29.76,29.68,10,10,6,9,4,,0.00,8,Snow,194
2012-12-18,25,21,17,24,21,14,100,92,86,29.73,29.70,29.66,10,5,2,7,4,,0.00,8,Snow,139
2012-12-19,25,20,15,23,16,10,94,84,74,30.12,29.93,29.73,10,9,5,12,7,,0.00,8,Snow,323
2012-12-20,15,8,2,10,3,-2,85,81,73,30.29,30.20,30.13,10,10,9,10,7,,0.00,7,Snow,349
2012-12-21,9,6,2,3,2,-2,86,83,73,30.30,30.26,30.08,10,9,2,13,5,,0.00,7,Snow,189
2012-12-22,14,8,1,8,3,-4,85,77,67,30.27,30.19,30.05,10,8,2,23,14,28,0.00,7,Snow,353
2012-12-23,3,0,-4,-4,-6,-10,85,77,71,30.28,30.25,30.22,10,9,3,15,10,,0.00,7,Snow,17
2012-12-24,0,-5,-10,-8,-12,-15,84,73,66,30.42,30.31,30.23,10,10,9,15,11,,0.00,6,Snow,359
2012-12-25,0,-5,-10,-7,-13,-17,76,71,61,30.52,30.47,30.42,10,10,10,13,6,,0.00,1,Snow,289
2012-12-26,9,4,0,3,-2,-6,85,79,72,30.40,30.35,30.28,10,8,2,7,2,,0.00,8,Snow,126
2012-12-27,14,11,8,8,6,3,86,81,73,30.28,30.20,30.16,10,8,4,8,3,,0.00,8,Snow,144
2012-12-28,15,8,0,10,4,-6,92,82,73,30.17,30.10,30.03,10,8,1,10,4,,0.00,7,Snow,201
2012-12-29,9,2,-6,0,-4,-11,85,75,65,30.10,30.07,30.03,10,10,4,15,9,,0.00,6,Snow,294
2012-12-30,24,13,2,20,9,-4,86,78,67,30.16,30.02,29.90,10,10,5,21,11,25,0.00,7,Snow,348
2012-12-31,1,-5,-14,-6,-11,-20,78,75,66,30.30,30.26,30.18,10,10,10,10,6,,0.00,0,Snow,267